Location: Unspecified
(0.0000°N, 0.0000°E)
Time: 08:49:12
(UTC+02:00)

Meteor 2-8 Rocket - Visible Passes

Search period start: 28 April 2015 00:00
Search period end: 08 May 2015 00:00
Orbit: 937 x 958 km, 82.5° (Epoch: 27 April)

Date Brightness Start Highest point End Pass type
(mag) Time Alt. Az. Time Alt. Az. Time Alt. Az.
28 Apr 5.9 05:48:57 10° NNE 05:54:17 34° E 05:59:43 10° SSE visible
29 Apr 4.8 06:05:17 10° N 06:11:13 62° E 06:17:12 10° SSE visible
30 Apr 4.3 06:22:06 10° N 06:28:07 73° W 06:34:10 10° S visible
01 May 7.0 04:57:21 10° NE 05:00:17 15° E 05:03:41 10° ESE visible
01 May 4.8 06:39:26 10° NNW 06:45:03 40° W 06:50:38 10° SSW visible
02 May 6.2 05:12:24 10° NNE 05:17:19 27° E 05:22:25 10° SE visible
02 May 5.5 06:57:26 10° NW 07:02:03 22° W 07:06:25 10° SW visible
03 May 5.1 05:28:29 10° NNE 05:34:16 50° E 05:36:02 39° SE visible
03 May 6.0 07:17:13 10° WNW 07:19:07 11° W 07:19:50 11° WSW visible
04 May 4.6 05:45:09 10° N 05:50:06 63° N 05:50:06 63° N visible
05 May 5.6 06:02:17 10° NNW 06:05:10 28° NW 06:05:10 28° NW visible
06 May 7.0 04:35:57 10° NE 04:36:42 13° NE 04:36:42 13° NE visible
06 May 6.4 06:20:01 10° NW 06:20:40 13° NW 06:20:40 13° NW visible
07 May 6.9 04:51:46 10° NNE 04:52:27 13° NNE 04:52:27 13° NNE visible
